New York Downtown Manhattan/w, NY

12:41 PM EDT on October 14, 2019 (GMT -0400)
New York Downtown Manhattan/w

Weather History for KJRB - June, 2019

Change the Weather History Date:

Saturday, June 1, 2019

  Actual Average (WUND) Record (WUND)
Temperature  
Mean Temperature 72 °F -  
Max Temperature 80 °F - - (-1)
Min Temperature 66 °F - - (-1)
Cooling Degree Days 7    
Growing Degree Days 22 (Base 50)    
Moisture  
Dew Point 57 °F    
Average Humidity 65    
Maximum Humidity 81    
Minimum Humidity 45    
Precipitation  
Precipitation 0.00 in - - ()
Sea Level Pressure  
Sea Level Pressure 29.82 in    
Wind  
Wind Speed 5 mph ()    
Max Wind Speed 13 mph    
Max Gust Speed 24 mph    
Visibility 10.0 miles    
Events      
Averages and records for this station are not official NWS values.
T = Trace of Precipitation, MM = Missing Value Source: Averaged Metar Reports

Daily Weather History Graph

Daily Weather History Graph

Search for Another Location

Airport or City:

Astronomy

Jun. 01, 2019 Rise Set
Actual Time 5:27 AM EDT 8:20 PM EDT
Civil Twilight 4:54 AM EDT 8:53 PM EDT
Nautical Twilight 4:13 AM EDT 9:34 PM EDT
Astronomical Twilight 3:25 AM EDT 10:22 PM EDT
Moon 4:31 AM EDT (6/1) 6:30 PM EDT (6/1)
Length of Visible Light 15h 58m
Length of Day
14h 53m
Waning Crescent, 4% of the Moon is Illuminated
Jun 1
Waning Crescent
Jun 3
New
Jun 10
First Quarter
Jun 17
Full
Jun 25
Last Quarter

Hourly Weather History & Observations

Time (EDT) Temp. Dew Point Humidity Pressure Visibility Wind Dir Wind Speed Gust Speed Precip Events Conditions
12:56 AM 70.0 °F 59.0 °F 68% 29.82 in 10.0 mi Calm Calm - N/A   Clear
1:56 AM 68.0 °F 59.0 °F 73% 29.81 in 10.0 mi West 4.6 mph - N/A   Clear
2:56 AM 69.1 °F 57.9 °F 68% 29.79 in 10.0 mi North 8.1 mph - N/A   Clear
3:56 AM 68.0 °F 57.9 °F 70% 29.79 in 10.0 mi NNE 4.6 mph - N/A   Clear
4:56 AM 66.9 °F 57.9 °F 73% 29.82 in 10.0 mi NE 8.1 mph - N/A   Clear
5:56 AM 66.9 °F 57.0 °F 70% 29.84 in 10.0 mi NE 12.7 mph - N/A   Clear
6:56 AM 66.9 °F 54.0 °F 63% 29.85 in 10.0 mi NNE 8.1 mph - N/A   Clear
7:56 AM 66.9 °F 55.0 °F 66% 29.86 in 10.0 mi NE 6.9 mph - N/A   Clear
8:56 AM 68.0 °F 55.0 °F 63% 29.87 in 10.0 mi NE 5.8 mph - N/A   Clear
9:56 AM 70.0 °F 57.0 °F 63% 29.87 in 9.0 mi West 4.6 mph - N/A   Clear
10:56 AM 73.0 °F 55.9 °F 55% 29.87 in 10.0 mi Variable 6.9 mph - N/A   Clear
11:56 AM 75.9 °F 55.9 °F 50% 29.86 in 10.0 mi WSW 5.8 mph - N/A   Clear
12:56 PM 77.0 °F 55.0 °F 47% 29.84 in 10.0 mi West 5.8 mph - N/A   Clear
1:56 PM 78.1 °F 55.0 °F 45% 29.82 in 10.0 mi West 5.8 mph - N/A   Clear
2:56 PM 78.1 °F 55.0 °F 45% 29.81 in 10.0 mi Variable 5.8 mph - N/A   Clear
3:56 PM 75.9 °F 54.0 °F 46% 29.80 in 10.0 mi South 10.4 mph 24.2 mph N/A   Partly Cloudy
4:56 PM 73.0 °F 57.0 °F 57% 29.80 in 10.0 mi South 8.1 mph - N/A   Clear
5:56 PM 71.1 °F 59.0 °F 66% 29.79 in 10.0 mi SSE 5.8 mph - N/A   Clear
6:56 PM 70.0 °F 60.1 °F 71% 29.79 in 10.0 mi SSE 5.8 mph - N/A   Clear
7:56 PM 69.1 °F 60.1 °F 73% 29.80 in 10.0 mi Calm Calm - N/A   Clear
8:56 PM 66.9 °F 60.1 °F 79% 29.80 in 10.0 mi ESE 3.5 mph - N/A   Mostly Cloudy
9:56 PM 66.9 °F 61.0 °F 81% 29.81 in 10.0 mi Calm Calm - N/A   Mostly Cloudy
10:56 PM 66.9 °F 61.0 °F 81% 29.81 in 10.0 mi Calm Calm - N/A   Scattered Clouds
11:56 PM 68.0 °F 61.0 °F 78% 29.80 in 10.0 mi Calm Calm - N/A   Mostly Cloudy